GFSNIL_sfc_wetblb_276.txt.gz
Wetbulb
69.97 69.11 68.50 68.08 67.83 67.11 67.83 68.84 68.82 69.11 69.75 70.47 71.84 72.02 71.97 71.65 71.62 72.18 71.60 70.48 70.65 70.87
66.55 66.23 65.56 65.61 65.63 65.10 65.79 65.69 65.99 66.69 67.47 68.32 68.97 69.17 70.19 71.06 71.28 71.33 71.53 70.20 70.90 70.81
63.52 63.51 63.64 63.18 62.66 63.12 63.42 63.43 63.18 63.63 64.30 65.04 65.84 66.95 68.14 68.19 69.24 70.07 70.67 71.01 70.85 70.56
61.60 61.79 61.81 61.03 60.97 61.19 61.02 60.69 60.40 60.35 60.60 61.01 61.38 64.00 64.84 65.31 65.90 65.86 67.18 68.81 69.67 69.18
59.71 59.43 59.23 59.19 59.01 59.04 58.45 58.95 58.67 58.25 57.98 58.22 58.92 61.19 60.41 59.48 60.06 60.84 61.79 64.30 65.66 67.06
57.25 57.30 57.32 57.86 57.92 57.81 57.77 57.67 57.53 57.31 56.85 56.85 57.35 58.63 58.63 58.59 58.49 58.64 59.02 60.63 61.72 63.80
56.14 56.18 56.60 57.06 57.35 57.33 57.25 56.74 56.68 56.86 56.65 56.57 57.30 58.51 58.74 58.84 58.99 58.87 59.39 59.40 59.74 60.76
56.01 56.32 56.92 56.82 56.88 57.21 57.29 56.61 56.16 55.83 56.06 56.44 57.62 57.84 57.57 57.64 57.89 59.55 59.02 58.94 59.09 59.83
55.91 56.52 56.80 56.60 56.28 56.26 55.97 55.85 54.76 54.51 54.53 54.82 55.44 57.68 57.68 57.55 55.11 55.70 58.28 57.74 59.09 59.78
55.43 55.89 55.94 55.84 54.49 53.70 53.70 53.76 52.60 52.39 52.92 52.66 53.18 55.25 55.52 56.75 52.84 52.46 55.31 55.81 57.31 60.10
55.12 54.53 54.61 53.31 51.92 51.99 52.12 51.66 51.55 51.32 51.22 51.20 51.83 53.83 54.37 55.03 51.71 51.53 51.94 52.90 54.06 56.60
53.78 53.27 53.19 52.49 51.88 51.36 51.08 50.70 50.22 50.11 49.85 49.81 50.43 52.46 53.12 53.04 51.43 51.16 51.28 52.54 53.55 54.51
53.88 53.02 52.28 52.15 52.16 51.25 50.65 50.22 49.76 49.46 48.83 49.97 49.06 50.79 52.21 52.19 50.65 49.39 50.11 51.56 52.58 54.36
54.47 53.65 52.81 52.01 51.78 51.25 50.86 50.28 49.64 48.98 48.63 48.75 49.15 49.89 51.12 51.50 50.56 49.90 49.66 50.56 51.24 52.92

GFSNIL_sfc_wetblb_279.txt.gz
Wetbulb
67.42 68.75 69.10 68.51 70.01 70.00 70.03 69.33 69.45 70.49 71.42 72.19 72.71 73.55 74.95 74.65 74.23 73.55 72.88 72.22 72.48 72.27
66.22 66.21 65.99 65.94 66.93 66.37 66.52 66.29 66.37 67.00 67.10 68.21 68.89 70.93 72.61 72.50 73.30 73.33 73.28 72.56 71.98 71.84
65.32 65.10 64.73 63.94 63.91 63.83 64.21 64.28 64.08 64.06 64.26 64.72 65.41 68.67 69.06 68.75 69.19 70.03 71.71 72.36 73.11 72.83
63.49 63.47 63.60 62.86 62.97 62.82 62.95 62.91 62.53 62.57 62.53 62.87 64.00 64.46 64.39 64.73 65.20 65.18 65.08 67.09 68.93 70.10
62.54 63.02 62.45 62.26 62.06 62.51 61.95 62.49 62.20 62.11 61.93 62.28 62.64 62.79 62.53 62.30 62.86 62.63 62.87 63.36 64.21 65.90
61.57 61.58 61.17 61.38 61.71 61.54 61.39 60.95 61.35 61.39 61.09 61.39 61.90 61.98 61.84 61.80 61.85 62.50 62.46 63.48 63.56 63.30
60.86 60.90 60.50 60.87 60.95 60.72 60.69 59.67 59.84 60.37 60.73 60.91 60.68 59.51 58.97 59.08 61.03 61.44 61.35 61.40 61.19 63.28
61.02 61.01 60.71 60.31 60.14 59.81 59.54 58.98 59.16 59.22 59.43 59.47 59.68 57.86 57.50 57.58 59.84 60.01 60.18 61.31 62.00 63.04
60.54 60.51 59.55 58.62 58.47 58.20 57.72 57.44 57.57 57.31 57.14 57.18 57.05 55.94 56.42 57.43 57.98 57.96 58.58 58.75 59.90 61.67
59.81 58.86 57.88 57.88 57.65 56.49 55.84 56.55 55.99 55.67 56.05 56.01 56.43 54.87 55.35 56.45 56.83 56.83 56.79 56.80 57.18 58.41
58.39 57.69 57.77 57.44 56.57 56.11 55.48 55.17 54.94 54.82 55.52 55.24 54.87 53.96 54.20 55.45 56.74 56.63 56.62 56.03 54.65 54.61
57.57 57.01 57.14 56.45 56.22 56.26 55.76 55.13 54.78 54.81 55.07 54.72 54.78 52.65 53.27 54.69 55.64 55.67 55.98 55.46 55.59 55.64
57.83 56.84 56.14 56.78 56.72 57.31 56.96 56.12 55.48 55.04 55.07 52.87 54.52 52.30 52.12 53.46 54.25 53.97 54.59 56.42 56.78 55.91
58.90 57.84 58.00 58.09 58.15 57.66 57.29 57.60 57.46 57.13 56.62 55.44 53.93 54.45 51.49 51.39 53.88 53.22 53.17 53.64 54.09 54.40

GFSNIL_sfc_wetblb_285.txt.gz
Wetbulb
73.63 74.18 72.87 73.35 73.32 72.99 72.49 71.77 71.51 70.68 71.38 71.48 71.59 72.08 73.02 74.10 74.71 74.47 74.29 72.87 72.77 72.99
73.00 72.93 71.93 71.78 72.35 70.90 70.61 68.99 69.01 68.58 68.31 68.67 68.91 69.85 70.14 69.89 71.07 71.00 72.10 72.45 72.77 73.07
72.03 71.60 71.02 70.29 69.04 68.48 68.03 68.02 67.75 67.55 67.48 67.75 68.12 68.00 68.15 67.94 69.56 67.98 68.05 67.92 68.78 69.63
69.60 68.95 68.83 67.52 67.12 67.16 67.17 67.17 66.94 67.17 67.13 67.15 67.23 66.78 66.45 66.56 67.19 66.50 66.79 67.32 67.34 67.54
68.15 67.74 66.78 66.16 66.16 66.44 66.16 66.71 66.60 66.41 65.90 64.91 64.47 64.22 64.15 63.55 65.03 64.76 65.62 66.01 65.57 65.40
66.15 65.61 65.54 65.35 65.98 65.72 65.37 65.29 65.37 64.87 64.27 64.11 63.93 62.89 63.29 63.78 63.96 63.52 64.48 64.79 64.12 64.29
65.24 65.16 64.79 65.13 64.66 64.31 64.47 64.20 64.02 64.01 63.95 63.26 60.94 59.66 60.35 61.91 63.51 63.53 63.58 63.73 63.57 64.15
65.29 65.06 64.47 63.80 63.56 63.26 63.11 62.58 62.35 61.85 60.95 60.15 57.15 56.59 58.96 61.73 62.05 62.31 62.14 62.72 62.44 62.28
64.02 64.00 63.28 62.93 62.30 61.75 60.82 60.80 61.30 60.68 59.58 57.62 55.20 56.34 57.49 59.29 61.14 61.53 61.06 59.64 59.35 60.38
63.39 62.74 62.19 61.26 60.87 60.44 60.07 60.50 60.26 59.92 59.71 57.87 55.88 55.18 56.20 58.34 60.00 60.72 60.75 60.54 58.62 58.31
62.41 62.03 61.39 60.63 60.21 60.34 60.04 59.95 59.59 59.40 59.55 59.10 55.68 54.55 55.19 57.01 59.39 59.67 60.29 60.53 59.67 58.48
62.10 61.55 60.66 59.96 60.07 60.38 60.21 60.67 60.18 60.60 59.63 58.86 58.68 53.99 54.71 55.96 58.52 58.14 58.80 59.70 59.03 57.02
62.18 61.36 60.40 60.70 60.76 61.27 61.44 60.89 60.65 60.49 61.39 57.88 59.23 51.95 53.39 54.63 56.47 57.03 56.98 58.72 58.49 54.49
61.27 61.21 61.52 61.56 61.57 61.60 61.61 61.75 61.52 60.37 61.22 61.45 59.97 57.96 52.75 53.11 56.56 54.72 56.54 55.56 55.79 56.34

GFSNIL_sfc_wetblb_291.txt.gz
Wetbulb
70.57 70.67 69.42 69.31 68.63 65.67 66.01 64.84 65.28 65.25 65.10 65.47 65.80 65.14 64.44 64.11 66.27 65.25 64.78 66.52 67.28 68.27
69.68 69.73 66.43 65.63 65.47 64.65 64.24 64.84 64.13 64.46 64.37 63.01 62.69 61.80 61.30 61.62 62.72 63.30 62.34 62.73 62.12 63.31
68.58 67.58 65.55 64.77 64.26 63.38 63.69 63.82 63.75 63.14 62.46 61.91 60.91 61.76 60.75 60.50 61.80 61.37 61.25 62.05 60.83 61.27
66.12 65.34 64.29 63.12 63.36 63.05 62.93 62.31 61.22 61.37 60.37 60.02 58.50 58.64 58.39 59.22 60.07 58.66 61.26 61.90 61.98 62.20
64.44 62.98 62.49 62.15 61.87 61.98 61.47 61.53 60.40 60.58 58.09 55.50 53.89 54.96 55.97 57.73 59.03 58.69 58.35 60.17 59.93 58.45
62.64 61.76 61.36 60.92 60.83 60.81 60.08 59.62 58.80 57.41 52.50 52.84 52.86 54.57 56.52 57.95 58.18 57.77 57.13 57.16 57.68 56.10
61.03 60.45 60.27 60.01 59.51 59.09 58.42 57.05 54.75 53.55 52.57 49.27 52.04 53.66 54.48 55.47 56.93 56.51 55.39 55.04 56.67 55.51
60.35 59.92 59.18 58.45 56.87 56.96 56.92 56.80 54.16 51.15 50.13 48.32 50.24 54.71 53.54 54.36 54.68 55.35 54.53 54.88 55.31 55.43
59.83 59.23 58.53 57.03 56.20 56.02 55.75 56.42 55.07 52.42 50.15 48.30 51.62 57.06 58.28 57.69 53.77 56.17 54.43 53.72 52.43 53.53
59.13 57.40 56.70 56.46 56.19 55.14 54.80 55.27 54.63 55.03 51.69 48.48 47.60 56.97 58.04 60.57 53.63 55.32 54.99 53.89 52.09 53.38
57.99 56.49 56.22 56.12 55.31 55.24 55.04 54.69 53.87 53.04 54.08 51.59 50.96 55.81 56.42 58.39 51.95 52.85 54.69 53.05 51.12 49.94
57.34 56.15 55.93 55.06 55.34 54.90 54.71 54.36 54.70 54.39 53.03 54.19 51.59 54.23 54.92 53.36 50.18 49.26 54.75 52.44 50.75 49.76
57.59 56.18 55.82 55.79 54.70 55.37 55.69 55.82 55.16 55.85 55.35 56.13 53.50 54.05 53.41 51.74 50.60 47.79 50.07 50.96 49.55 55.40
57.93 56.64 56.63 55.72 56.40 55.40 55.87 55.46 55.04 55.69 55.23 54.80 55.75 53.39 53.90 53.21 49.69 48.66 49.61 49.76 49.29 50.05